Zurück zum Katalog

SL-12 DEB

LostHEO
NORAD 29428·DEBRIS·🇷🇺 Russia

Gestartet May 31, 1989 von Baikonur Cosmodrome

Loading…

Nächste Überflüge (nächste 24 Stunden)

TLE

VeraltetSource: Space-Track

Epoche: Dec 16, 2006, 17:11 UTC

1 29428U 89039CB  06350.71613791 +.00040732 +00000-0 +61616-1 0  9990
2 29428 065.5883 225.8274 5670266 062.2389 344.1572 04.37803225006819

Verfolge SL-12 DEB in Echtzeit mit AllMySat

Download on the App Store